This is the latest recevied weather packets stored in our database for station/object KB3UMW-13. If no packets are shown the sender has not sent any weather packets the latest 10 day(s).
| Time | Temp. | Humidity | Pressure | Rain* | Wind** | Luminosity | Snow |
|---|---|---|---|---|---|---|---|
| 1777812185 | 3.33° C | 81% | 1016.3 hPa | 0 mm | - | 162 W/m² | - |
| 1777811882 | 3.33° C | 79% | 1016.5 hPa | 0 mm | - | 214 W/m² | - |
| 1777811580 | 2.78° C | 82% | 1016.5 hPa | 0 mm | - | 208 W/m² | - |
| 1777811270 | 2.22° C | 86% | 1016.3 hPa | 0 mm | - | 117 W/m² | - |
| 1777810968 | 1.67° C | 85% | 1016.4 hPa | 0 mm | - | 56 W/m² | - |
| 1777810664 | 1.67° C | 85% | 1016.1 hPa | 0 mm | - | 58 W/m² | - |
| 1777810361 | 1.11° C | 85% | 1016 hPa | 0 mm | - | 63 W/m² | - |
| 1777810057 | 1.11° C | 87% | 1016 hPa | 0 mm | - | 59 W/m² | - |
| 1777809755 | 0.56° C | 87% | 1016 hPa | 0 mm | - | 56 W/m² | - |
| 1777809452 | 0.56° C | 89% | 1016.3 hPa | 0 mm | - | 39 W/m² | - |
| 1777809150 | 0.56° C | 91% | 1015.8 hPa | 0 mm | - | 35 W/m² | - |
| 1777808847 | 0° C | 91% | 1015.8 hPa | 0 mm | - | 35 W/m² | - |
| 1777808543 | 0° C | 91% | 1015.9 hPa | 0 mm | - | 34 W/m² | - |
| 1777808240 | 0° C | 93% | 1015.8 hPa | 0 mm | - | 49 W/m² | - |
| 1777807939 | 0° C | 92% | 1015.9 hPa | 0 mm | - | 30 W/m² | - |
| 1777807636 | -0.56° C | 94% | 1015.8 hPa | 0 mm | - | 31 W/m² | - |
| 1777807334 | -0.56° C | 94% | 1015.7 hPa | 0 mm | - | 36 W/m² | - |
| 1777807029 | -0.56° C | 95% | 1015.7 hPa | 0 mm | - | 24 W/m² | - |
| 1777806726 | -1.11° C | 95% | 1015.7 hPa | 0 mm | - | 24 W/m² | - |
| 1777806422 | -1.11° C | 96% | 1015.4 hPa | 0 mm | - | 21 W/m² | - |
| 1777806119 | -1.11° C | 96% | 1015.6 hPa | 0 mm | - | 19 W/m² | - |
| 1777805815 | -1.11° C | 96% | 1015.3 hPa | 0 mm | - | 19 W/m² | - |
| 1777805513 | -1.11° C | 96% | 1015.1 hPa | 0 mm | - | 16 W/m² | - |
| 1777805211 | -1.11° C | 96% | 1015.2 hPa | 0 mm | - | 14 W/m² | - |
| 1777804909 | -1.11° C | 96% | 1015.1 hPa | 0 mm | - | 12 W/m² | - |
* Rain latest hour (hover to see other rain measurements)
** Current wind speed in m/s (hover to see current wind gust speed)